Weather Roundup
Issued by NWS

Home | Current Version | Previous Version | Graphics & Text | Print | Product List | Glossary Off
Versions: 1 2 3 4 5 6 7 8 9 10 11 12 13 14 15 16 17 18 19 20 21 22 23 24 25 26 27 28 29 30 31 32 33 34 35 36 37 38 39 40 41 42 43 44 45 46 47 48 49 50

000
NZUS93 KARX 180010
HRRWXR

CURRENT HOURLY OBSERVATIONS ACROSS
MUCH OF THE UPPER MISSISSIPPI VALLEY
NATIONAL WEATHER SERVICE LA CROSSE WI
700 PM CDT WED SEP 17 2014


...SOUTHEAST MINNESOTA...


CITY           SKY/WX    TMP DP  RH WIND       PRES   REMARKS
ROCHESTER      CLEAR     64  54  69 E5        29.97S
ROCHESTER/MAYO FAIR      69  47  46 E5        29.96S
WINONA         CLEAR     66  55  68 CALM      29.96S
AUSTIN         PTCLDY    66  54  63 CALM      29.96R
ALBERT LEA     CLEAR     68  54  60 SE5       29.95S HAZE
DODGE CENTER   CLEAR     66  55  68 E3        29.97R
PRESTON        CLEAR     66  57  72 SE3       29.98S
OWATONNA       CLEAR     70  54  56 CALM      29.96R
FARIBAULT      CLEAR     70  55  60 CALM      29.96R
$$

...ELSEWHERE IN MINNESOTA...


CITY           SKY/WX    TMP DP  RH WIND       PRES   REMARKS
MINNEAPOLIS    PTCLDY    70  53  54 E7        29.95R
INTNL FALLS    CLOUDY    48  38  68 NE7       30.09R
DULUTH         CLOUDY    45  40  82 E16       30.06R
RED WING       CLEAR     66  57  72 CALM      29.94R
REDWOOD FALLS  CLEAR     72  54  53 CALM      29.94R
MANKATO        CLEAR     72  52  49 E5        29.94S
WORTHINGTON    CLOUDY    72  55  56 NE7       29.95R
FAIRMONT       MOCLDY    70  50  49 NE5       29.94S
$$

...SOUTHWEST WISCONSIN...


CITY           SKY/WX    TMP DP  RH WIND       PRES   REMARKS
LA CROSSE      CLEAR     66  54  65 CALM      29.96S
PRAIRIE DU CHI CLEAR     64  52  65 CALM      29.96S
BOSCOBEL       CLEAR     65  56  72 CALM      29.97R
LONE ROCK      CLEAR     66  53  63 CALM      29.98R
PLATTEVILLE    CLEAR     64  52  64 CALM      29.99R
FORT MC COY    CLEAR     63  53  70 CALM      29.98S
CAMP DOUGLAS   PTCLDY    61  59  94 CALM      29.98R
VIROQUA        FAIR      60  55  83 CALM      29.98S
WIS DELLS      CLEAR     62  50  66 CALM      29.98S
$$

...ELSEWHERE IN WISCONSIN...


CITY           SKY/WX    TMP DP  RH WIND       PRES   REMARKS
MILWAUKEE      PTCLDY    60  48  64 S8        29.98S
MADISON        PTCLDY    60  52  74 CALM      29.98R
GREEN BAY      CLEAR     62  53  72 SW5       29.95R
EAU CLAIRE     CLEAR     66  53  63 CALM      29.96R
BLACK RVR FLS  FAIR      64  55  73 CALM      29.97R
MEDFORD        CLEAR     62  51  67 SW3       29.97S
WAUSAU         CLEAR     63  50  62 W6        29.95S
WIS RAPIDS     PTCLDY    60  55  83 SW3       29.98S
MARSHFIELD     CLEAR     63  52  67 W5        29.97S
RICE LAKE      CLEAR     66  51  59 CALM      29.98S
$$

...NORTHEAST IOWA...


CITY           SKY/WX    TMP DP  RH WIND       PRES   REMARKS
WATERLOO       CLEAR     68  49  50 E3        29.95R
DUBUQUE        CLEAR     64  52  64 CALM      29.98R
DECORAH        CLEAR     64  54  68 CALM      29.97R
MASON CITY     CLEAR     66  52  60 E6        29.96S
CHARLES CITY   CLEAR     64  55  72 CALM      29.97R
OELWEIN        CLEAR     66  52  59 CALM      29.97R
$$

...ELSEWHERE IN IOWA...


CITY           SKY/WX    TMP DP  RH WIND       PRES   REMARKS
DES MOINES     PTCLDY    72  56  57 E5        29.93S
IOWA CITY      CLEAR     66  55  67 SE6       29.96S
FORT DODGE     PTCLDY    70  55  60 S3        29.95R
MARSHALLTOWN   CLEAR     66  56  70 E3        29.95R
CEDAR RAPIDS   CLEAR     65  56  72 E3        29.95S
$$

...NORTHERN ILLINOIS...


CITY           SKY/WX    TMP DP  RH WIND       PRES   REMARKS
CHICAGO-OHARE  CLEAR     66  46  48 E8        29.98R
DUPAGE         CLEAR     65  49  56 CALM      29.97S
CHICAGO-MIDWAY CLEAR     65  48  54 E10       29.98R
MOLINE         CLEAR     63  53  70 CALM      29.96R
ROCKFORD       PTCLDY    66  51  58 CALM      29.99R
STERLING       CLEAR     63  52  67 CALM      29.97R
PEORIA         MOCLDY    64  53  67 CALM      29.97R
$$

NOTE: "FAIR" INDICATES FEW OR NO CLOUDS BELOW 12,000 FEET WITH NO
SIGNIFICANT WEATHER AND/OR OBSTRUCTIONS TO VISIBILITY. WIND
SPEEDS ARE IN MILES-PER-HOUR.



USA.gov is the U.S. government's official web portal to all federal, state and local government web resources and services.